This is the latest recevied weather packets stored in our database for station/object K6CQU-13. If no packets are shown the sender has not sent any weather packets the latest 10 day(s).
| Time | Temp. | Humidity | Pressure | Rain* | Wind** | Luminosity | Snow |
|---|---|---|---|---|---|---|---|
| 1777481718 | 18.89° C | 61% | 1018.5 hPa | 0 mm | - | 631 W/m² | - |
| 1777481418 | 18.89° C | 61% | 1018.5 hPa | 0 mm | - | 617 W/m² | - |
| 1777481118 | 18.89° C | 61% | 1018.5 hPa | 0 mm | - | 604 W/m² | - |
| 1777480818 | 18.89° C | 62% | 1018.6 hPa | 0 mm | - | 590 W/m² | - |
| 1777480518 | 18.33° C | 64% | 1018.6 hPa | 0 mm | - | 574 W/m² | - |
| 1777480218 | 18.33° C | 64% | 1018.5 hPa | 0 mm | - | 559 W/m² | - |
| 1777479917 | 17.78° C | 65% | 1018.5 hPa | 0 mm | - | 544 W/m² | - |
| 1777479617 | 17.78° C | 66% | 1018.5 hPa | 0 mm | - | 530 W/m² | - |
| 1777479318 | 17.78° C | 67% | 1018.6 hPa | 0 mm | - | 514 W/m² | - |
| 1777479018 | 17.78° C | 66% | 1018.6 hPa | 0 mm | - | 499 W/m² | - |
| 1777478718 | 17.78° C | 66% | 1018.7 hPa | 0 mm | - | 484 W/m² | - |
| 1777478417 | 18.33° C | 65% | 1018.6 hPa | 0 mm | - | 468 W/m² | - |
| 1777478117 | 18.33° C | 64% | 1018.7 hPa | 0 mm | - | 452 W/m² | - |
| 1777477818 | 18.33° C | 63% | 1018.7 hPa | 0 mm | - | 435 W/m² | - |
| 1777477518 | 18.33° C | 64% | 1018.7 hPa | 0 mm | - | 417 W/m² | - |
| 1777477217 | 18.33° C | 64% | 1018.8 hPa | 0 mm | - | 400 W/m² | - |
| 1777476917 | 17.78° C | 67% | 1018.7 hPa | 0 mm | - | 384 W/m² | - |
| 1777476618 | 17.22° C | 68% | 1018.7 hPa | 0 mm | - | 368 W/m² | - |
| 1777476318 | 16.67° C | 70% | 1018.7 hPa | 0 mm | - | 351 W/m² | - |
| 1777476018 | 16.11° C | 72% | 1018.7 hPa | 0 mm | - | 335 W/m² | - |
| 1777475717 | 16.11° C | 74% | 1018.7 hPa | 0 mm | - | 318 W/m² | - |
| 1777475417 | 15.56° C | 75% | 1018.7 hPa | 0 mm | - | 301 W/m² | - |
| 1777475118 | 15° C | 78% | 1018.6 hPa | 0 mm | - | 285 W/m² | - |
| 1777474817 | 14.44° C | 79% | 1018.6 hPa | 0 mm | - | 269 W/m² | - |
| 1777474518 | 14.44° C | 78% | 1018.6 hPa | 0 mm | - | 254 W/m² | - |
* Rain latest hour (hover to see other rain measurements)
** Current wind speed in m/s (hover to see current wind gust speed)